This is the latest recevied weather packets stored in our database for station/object SV9TNF-57. If no packets are shown the sender has not sent any weather packets the latest 10 day(s).
| Time | Temp. | Humidity | Pressure | Rain* | Wind** | Luminosity | Snow |
|---|---|---|---|---|---|---|---|
| 1788212878 | 26.11° C | 59% | 995.1 hPa | 0 mm | 0 m/s | - | - |
| 1788212578 | 26.11° C | 55% | 995.1 hPa | 0 mm | 0 m/s | - | - |
| 1788212278 | 25.56° C | 56% | 995 hPa | 0 mm | 0 m/s | - | - |
| 1788211978 | 26.11° C | 57% | 995.3 hPa | 0 mm | 0 m/s | - | - |
| 1788211678 | 26.11° C | 55% | 995.1 hPa | 0 mm | 0 m/s | - | - |
| 1788211378 | 26.67° C | 50% | 995.1 hPa | 0 mm | 0 m/s | - | - |
| 1788211078 | 26.11° C | 49% | 995.3 hPa | 0 mm | 0 m/s | - | - |
| 1788210778 | 26.11° C | 49% | 995 hPa | 0 mm | 0 m/s | - | - |
| 1788210478 | 26.67° C | 49% | 995 hPa | 0 mm | 0 m/s | - | - |
| 1788210177 | 26.67° C | 50% | 994.9 hPa | 0 mm | 0 m/s | - | - |
| 1788209878 | 26.67° C | 48% | 994.9 hPa | 0 mm | 0 m/s | - | - |
| 1788209577 | 26.67° C | 47% | 995.1 hPa | 0 mm | 0 m/s | - | - |
| 1788209277 | 26.11° C | 48% | 995.1 hPa | 0 mm | 0 m/s | - | - |
| 1788208977 | 26.11° C | 48% | 995.1 hPa | 0 mm | 0 m/s | - | - |
| 1788208677 | 26.67° C | 47% | 995.2 hPa | 0 mm | 0 m/s | - | - |
| 1788208377 | 26.67° C | 47% | 995.2 hPa | 0 mm | 0 m/s | - | - |
| 1788208077 | 26.67° C | 47% | 995.3 hPa | 0 mm | 0 m/s | - | - |
| 1788207777 | 26.67° C | 47% | 995.2 hPa | 0 mm | 0 m/s | - | - |
| 1788207476 | 26.67° C | 47% | 995.2 hPa | 0 mm | 0 m/s | - | - |
| 1788207176 | 26.67° C | 47% | 995.2 hPa | 0 mm | 0 m/s | - | - |
| 1788206877 | 26.67° C | 47% | 995.3 hPa | 0 mm | 0 m/s | - | - |
| 1788206576 | 26.67° C | 46% | 995.3 hPa | 0 mm | 0 m/s | - | - |
| 1788206276 | 26.67° C | 46% | 995.2 hPa | 0 mm | 0 m/s | - | - |
| 1788205976 | 26.67° C | 46% | 995.3 hPa | 0 mm | 0 m/s | - | - |
| 1788205676 | 26.67° C | 46% | 995.4 hPa | 0 mm | 0 m/s | - | - |
* Rain latest hour (hover to see other rain measurements)
** Current wind speed in m/s (hover to see current wind gust speed)